Location: Peebles
(55.6412°N, 3.1714°W)
Time: 10:47:50
(UTC+00:00)

deb Kosmos-1275 - Pass Details

Date: 05 December 2022
Orbit: 808 x 888 km, 83.0° (Epoch: 01 February)

Event Time Altitude Azimuth Distance (km) Brightness Sun altitude
Rises 07:33:39 0° 347° (NNW) 3,433 ? -6.5°
Reaches altitude 10° 07:36:07 10° 345° (NNW) 2,480 ? -6.2°
Maximum altitude 07:41:39 67° 265° (W) 905 ? -5.6°
Drops below altitude 10° 07:47:03 10° 183° (S) 2,414 ? -4.9°
Sets 07:49:25 0° 181° (S) 3,333 ? -4.6°
